Regional Weather Roundup
Issued by NWS

Home | Current Version | Previous Version | Graphics & Text | Print | Product List | Glossary On
Versions: 1 2 3 4 5 6 7 8 9 10 11 12 13 14 15 16 17 18 19 20 21 22 23 24 25 26 27 28 29 30 31 32 33 34 35 36 37 38 39 40 41 42 43 44 45 46 47 48 49 50
000
ASUS45 KTFX 231904
RWRMT
MONTANA HOURLY WEATHER ROUNDUP
NATIONAL WEATHER SERVICE GREAT FALLS MT
104 PM MDT WED APR 23 2014

NOTE: "FAIR" INDICATES FEW OR NO CLOUDS BELOW 12000 FEET WITH NO
SIGNIFICANT WEATHER AND/OR OBSTRUCTIONS TO VISIBILITY.

* THESE STATIONS ARE NOT UNDER NWS QUALITY CONTROL. THEY DO NOT
   REPORT WEATHER SUCH AS PRECIPITATION OR FOG.

MTZ001>007-043-232000-
WEST OF THE DIVIDE
CITY           SKY/WX    TMP DP  RH WIND       PRES   REMARKS
KALISPELL      LGT RAIN  45  27  49 W14G24    29.73F
MISSOULA       CLOUDY    45  30  56 W7        29.84R
BUTTE          PTSUNNY   39  21  48 SW14      29.82S WCI  31
MULLAN PASS    SNOW      27  27 100 VRB6      29.76S VSB M1/4 WCI  20
* LINCOLN      N/A       39  21  48 SW8G21     N/A   WCI  33
* LOOKOUT PASS N/A       32  30  92 N4         N/A
* PLAINS APT   PTSUNNY   45  34  65 CALM      29.85R
* POLSON       N/A       43  27  53 SW4G11     N/A
* RONAN APT    PTSUNNY   41  32  70 E9         N/A
* SEELEY LAKE  N/A       40  23  51 SW9G18     N/A   WCI  34
* THOMP F APT  PTSUNNY   41  19  41 NE1G10     N/A
* YAAK HILL    N/A       41  33  73 SE4        N/A
$$

MTZ008-052>055-232000-
SOUTHWEST MONTANA
CITY           SKY/WX    TMP DP  RH WIND       PRES   REMARKS
BOZEMAN        CLOUDY    43  21  42 SW15      29.81S
DILLON         PTSUNNY   39  23  53 SW21G31   29.85S WCI  29
W YELLOWSTONE  N/A       40  26  57 SW7G14     N/A   WCI  35
* THREE FORKS  SUNNY     46  27  48 SW16G29    N/A
* BOULDER HILL N/A       39  14  36 SW22G27    N/A   WCI  29
* MONIDA PASS  N/A       31  14  49 W2         N/A
* RAYNOLDS PAS N/A       31  20  64 SW15G20    N/A   WCI  20
* WHITEHALL    N/A       44  19  37 W9G26      N/A
* WISE RIVER   N/A       36  18  48 W10G21     N/A   WCI  29
$$

MTZ009>010-012-014-046-048-049-054-232000-
EAST SLOPES AND CENTRAL MONTANA
CITY           SKY/WX    TMP DP  RH WIND       PRES   REMARKS
CUT BANK       SUNNY     50  21  32 W33G47    29.59S
GREAT FALLS    PTCLDY    50  23  35 W32G41    29.66S
HELENA         PTCLDY    48  19  32 W15G26    29.77S
MALMSTROM AFB  PTCLDY    52  19  27 SW25G35   29.64S
* CONRAD       SUNNY     48  19  32 SW30G37    N/A
* DEARBORN     N/A       46  20  36 S13G24     N/A
* EAST GLACIER N/A       36  22  57 W34G45     N/A   WCI  22
* MONARCH      N/A       40  15  36 W20G29     N/A   WCI  30
* PENDROY      N/A       46  19  34 W28G45     N/A
* ROGERS PASS  N/A       35  20  54 SE23G35    N/A   WCI  23
* SAINT MARY   N/A       41  19  41 SW12G29    N/A
* SWEET GRASS  N/A       49  14  24 SW34G44    N/A
$$

MTZ011-013-016-021-035-040-045-047-050-051-232000-
NORTH CENTRAL MONTANA
CITY           SKY/WX    TMP DP  RH WIND       PRES   REMARKS
HAVRE          PTCLDY    55  25  31 W29G45    29.56S
LEWISTOWN      PTCLDY    46  19  34 W20G33    29.66R
* MALTA APT    PTCLDY    57  27  32 W21G32    29.53R
* CHESTER      N/A       49  18  29 W26G40     N/A
* DENTON       N/A       51  19  28 W35G50     N/A
* GEYSER       N/A       47  16  29 W29G41     N/A
* JUDITH GAP   N/A       47  17  30 W24G33     N/A
* LOMA         N/A       52  21  30 W26G37     N/A
$$

MTZ017>020-022>027-061-062-232000-
NORTHEAST MONTANA
CITY           SKY/WX    TMP DP  RH WIND       PRES   REMARKS
GLASGOW        CLOUDY    54  28  37 NW22G32   29.53R
GLENDIVE       CLOUDY    46  37  71 W22G30    29.61R
JORDAN         PTSUNNY   52  23  32 W23G29    29.61R
SIDNEY         CLOUDY    48  39  71 W23G31    29.50R
WOLF POINT     CLOUDY    52  36  55 W22G37    29.53R
* BEAVER HILL  N/A       43  38  83 SW24G35    N/A
* CIRCLE       N/A       52  36  55 W17G23     N/A
* LINDSAY DVD  N/A       46  30  54 W24G34     N/A
* NAVAJO       N/A       46  44  93 W9         N/A
* SACO         N/A       56  27  33 W24G33     N/A
* SCOBEY APT   CLOUDY    43  36  76 W20G31    29.50R
$$

MTZ028>042-056>058-232000-
SOUTHCENTRAL AND SOUTHEAST MONTANA
CITY           SKY/WX    TMP DP  RH WIND       PRES   REMARKS
BAKER          CLOUDY    46  37  71 NW29G38   29.61R
BILLINGS       PTCLDY    54  19  25 W24G36    29.70R
LIVINGSTON     SUNNY     46  21  37 W41G49    29.73F
MILES CITY     LGT RAIN  46 N/A N/A W31G37    29.66S
* EKALAKA APT  CLOUDY    43  36  76 W24G33    29.65R
* LAUREL APT   PTCLDY    52  19  27 W26G36     N/A
* ROUNDUP APT  PTSUNNY   48  21  34 W21G30     N/A
* ALZADA       N/A       45  40  83 W20        N/A
* HYSHAM       N/A       44  34  68 W9         N/A
* LAME DEER    N/A       35  33  92 W12G21     N/A   WCI  27
* REED POINT   N/A       49  24  38 W28G40     N/A
* ROSCOE HILL  N/A       49  10  20 SW9G15     N/A
$$

REGIONAL REPORTS...DAKOTAS
CITY           SKY/WX    TMP DP  RH WIND       PRES   REMARKS
WILLISTON      CLOUDY    52  45  77 W16       29.45R
DICKINSON      CLOUDY    55  41  59 W28G33    29.48R
CROSBY         CLOUDY    52  41  66 SE16G28   29.48F
TIOGA          CLOUDY    54  37  53 SE25G31   29.50S
WATFORD CITY   PTSUNNY   52  45  77 W18G23    29.45R
BISMARCK       CLOUDY    55  39  55 SE32G38   29.55F
GRAND FORKS    LGT RAIN  45  41  86 SE21      29.87S
FARGO          CLOUDY    45  39  80 SE18G26   29.85S
BUFFALO SD     CLOUDY    52  37  57 NW37G44   29.52R
RAPID CITY     CLOUDY    64  43  47 NW17G23   29.56R
$$

REGIONAL REPORTS...WYOMING/IDAHO/WASHINGTON
CITY           SKY/WX    TMP DP  RH WIND       PRES   REMARKS
GILLETTE       CLOUDY    45  36  71 NW21G31   29.70R
SHERIDAN       PTCLDY    52  30  43 N26G35    29.69S
CODY           PTCLDY    48  14  25 W24G36    29.73R
YELLOWSTONE LA PTCLDY    32  10  40 W14G21    29.84R WCI  22
SALMON         PTSUNNY   46  21  37 SW20      29.87F
MULLAN PASS    SNOW      27  27 100 VRB6      29.76S VSB M1/4 WCI  20
SAND POINT     CLOUDY    39  39 100 SW7       29.84F WCI  34
SPOKANE        PTSUNNY   48  32  54 W16G29    29.82F

$$




USA.gov is the U.S. government's official web portal to all federal, state and local government web resources and services.